User: anonymous   Login
Location: Unspecified
(0.0000°N, 0.0000°E)
Time: 11:03:28
(UTC+00:00)
Language:

CANX-2 - Orbit

View from above orbital plane
View from above orbital plane
View from above satellite
View from above satellite

Ground track
Ground track

The orbit data is extracted from the following two-line orbital elements,

1 32790U 08021H   17351.10409885  .00000226  00000-0  30402-4 0  9997
2 32790  97.5543   5.1777 0012329 285.9331  74.0528 14.87740362522031
Epoch (UTC): 17 December 2017 02:29:54
Eccentricity: 0.0012329
inclination: 97.5543°
perigee height: 596 km
apogee height: 613 km
right ascension of ascending node: 5.1777°
argument of perigee: 285.9331°
revolutions per day: 14.87740362
mean anomaly at epoch: 74.0528°
orbit number at epoch: 52203

The dashed part of the orbit path shows where the satellite is in the earth's shadow,  

DLR